Regional Weather Roundup
Issued by NWS

Home | Current Version | Previous Version | Text Only | Print | Product List | Glossary On
Versions: 1 2 3 4 5 6 7 8 9 10 11 12 13 14 15 16 17 18 19 20 21 22 23 24 25 26 27 28 29 30 31 32 33 34 35 36 37 38 39 40 41 42 43 44 45 46 47 48
000
ASUS43 KMPX 131010
RWRMN
WEATHER ROUNDUP FOR MINNESOTA
NATIONAL WEATHER SERVICE TWIN CITIES/CHANHASSEN MN
500 AM CDT THU AUG 13 2020


NOTE: "FAIR" INDICATES FEW OR NO CLOUDS BELOW 12,000 FEET WITH NO
SIGNIFICANT WEATHER AND/OR OBSTRUCTIONS TO VISIBILITY. N/A MEANS
CURRENT SKY AND/OR WEATHER CONDITIONS ARE NOT AVAILABLE.

MNZ060>063-068>070-131100-
   Twin Cities Metro

CITY           SKY/WX    TMP DP  RH WIND       PRES   REMARKS
TWIN CITIES    PTCLDY    70  66  87 S6        30.00F
ST PAUL        PTCLDY    69  64  84 SE5       30.01S
CRYSTAL        CLEAR     65  63  93 SE3       29.98F
BLAINE         PTCLDY    68  66  94 SE7       29.99F
LAKEVILLE      CLEAR     70  66  88 S6        30.01F
EDEN PRAIRIE   CLEAR     70  66  87 S8        29.98F
SOUTH ST PAUL  CLEAR     69  65  85 S6        30.00F
LAKE ELMO      FAIR      64  63  94 S6        30.02F
$$
MNZ001>005-007-008-013>017-022>024-027-028-131100-
   Northwest Minnesota

CITY           SKY/WX    TMP DP  RH WIND       PRES   REMARKS
BEMIDJI        CLOUDY    61  59  94 E10       29.99F
HALLOCK        CLOUDY    64  63  94 E10       29.88F
ROSEAU         CLOUDY    63 N/A N/A SE9       29.97S
THIEF RVR FALL MOCLDY    63  60  90 E17       29.93F
CROOKSTON      MOCLDY    66  63  88 SE10      29.89S
FOSSTON        CLEAR     63  57  82 SE10G16   29.93F
DETROIT LAKES    N/A     63  61  94 SE14      29.93F
MOORHEAD       PTCLDY   N/A N/A N/A SE9       29.86F
PARK RAPIDS    CLOUDY    63  59  87 SE9       29.97F
MAHNOMEN       PTSUNNY   64  61  90 SE14G20   29.91F
$$
MNZ006-009>011-018-025>026-131100-
   North Central Minnesota

CITY           SKY/WX    TMP DP  RH WIND       PRES   REMARKS
BAUDETTE       CLEAR     58  57  97 SE13      30.01F
FLAG ISLAND      N/A     66  59  77 S15       29.99S
INTL FALLS     CLEAR     56  54  93 SE9       30.05F
WASKISH          N/A     57  54  88 E7        30.00F
BIG FORK       PTCLDY    55  54  94 E3        30.09F
GRAND RAPIDS   CLOUDY    61  58  90 SE7       30.05F
CRANE LAKE     CLEAR     54  54 100 CALM      30.11S
ORR              N/A     57  54  88 SE3       30.05F
COOK           CLEAR     55  55 100 CALM      30.07F
WALKER         CLOUDY    62  60  91 E7        29.99F
$$
MNZ012-019>021-037-131100-
   Northeast Minnesota

CITY           SKY/WX    TMP DP  RH WIND       PRES   REMARKS
DULUTH         CLOUDY    63  58  83 E14       30.08F
ELY            CLOUDY    59  57  94 E6        30.10F
HIBBING        MOCLDY    59  57  93 SE5       30.07F
EVELETH        CLOUDY    60  58  94 E3        30.10S
DULUTH HARBOR  CLOUDY    64  57  77 E9        30.08S
TWO HARBORS    CLEAR     63  54  72 NE7       30.09F
SILVER BAY       N/A     63  61  94 CALM      30.12F
GRAND MARAIS     N/A     59  55  87 CALM      30.12S
G MARAIS ARPRT PTCLDY    57  54  88 CALM      30.16S
$$
MNZ029>031-032-039>041-046>048-054>057-064-131100-
   West Central Minnesota

CITY           SKY/WX    TMP DP  RH WIND       PRES   REMARKS
FERGUS FALLS   PTCLDY    66  64  94 SE14      29.89F
WHEATON        CLOUDY    66  64  94 SE15      29.87F FOG
MORRIS         CLOUDY    68  68 100 SE10      29.91F FOG
ALEXANDRIA     CLOUDY    65  64  97 SE12      29.96F
ELBOW LAKE     CLOUDY    66  66 100 SE12G17   29.90F
WADENA         CLOUDY    63  63 100 SE12      29.95F
GLENWOOD       FOG       66  66 100 SE10      29.95F VSB 1/2
APPLETON       CLOUDY    70  66  88 SE12      29.89F FOG
BENSON         CLOUDY    70  66  88 S9        29.93S FOG
ORTONVILLE     CLOUDY    66  66 100 SE10G17   29.88F FOG
MADISON        CLEAR     72  70  94 SE8       29.89F
WILLMAR        FOG       70  68  94 SE10      29.97F VSB 1/2
$$
MNZ033>034-036-042>043-049>051-058-059-131100-
   Central Minnesota

CITY           SKY/WX    TMP DP  RH WIND       PRES   REMARKS
ST CLOUD       CLOUDY    63  61  93 E5        29.98F
SAUK CENTRE    CLOUDY    63  63  99 E9        29.96F
PAYNESVILLE    CLOUDY    68  69 100 SE12      29.96F FOG
AITKIN         CLOUDY    61  57  88 E5        30.00F
PINE RIVER     CLOUDY    61  57  88 E7        30.02F
BRAINERD       CLOUDY    67  62  84 VRB6      29.99F
STAPLES        CLOUDY    61  59  94 SE6       29.96F
LONG PRAIRIE   CLOUDY    61  61 100 E5        29.97F
LITTLE FALLS   CLOUDY    63  63 100 SE5       29.97F
CAMP RIPLEY    CLOUDY    63  62  95 SE6       29.98F
LITCHFIELD     CLOUDY    72  72 100 SE8       29.97F FOG
BUFFALO        CLEAR     63  61  93 MISG      29.99F
MAPLE LAKE       N/A     66  65  98 CALM      29.99F
HUTCHINSON     CLOUDY    71  70  98 SE6       29.98F
$$
MNZ037-044-045-052-053-131100-
   East Central Minnesota

CITY           SKY/WX    TMP DP  RH WIND       PRES   REMARKS
PRINCETON      CLOUDY    64  63  94 E3        30.00S
MORA           CLOUDY    61  59  94 CALM      30.03F
CAMBRIDGE      CLOUDY    66  57  72 E3        30.01S
RUSH CITY      CLOUDY    61  59  92 E3        30.02F
MOOSE LAKE     CLOUDY    63  59  88 CALM      30.04S
HINCKLEY       CLOUDY    63  63 100 E6        30.03S
CLOQUET        CLOUDY    63  57  82 E7        30.06F
MCGREGOR       CLOUDY    63  59  88 E8        30.04S
$$
MNZ071>073-080-081-089-090-097-098-131100-
   Southwest Minnesota

CITY           SKY/WX    TMP DP  RH WIND       PRES   REMARKS
MONTEVIDEO     PTCLDY    70  66  88 S8        29.92S FOG
GRANITE FALLS  CLEAR     72  70  95 SE7       29.94S
CANBY          CLEAR     71  69  93 E8        29.90F
MARSHALL       CLEAR     71  69  93 S10       29.93S
REDWOOD FALLS  CLOUDY    73  70  90 SE12      29.94F
OLIVIA         CLOUDY    70  70 100 SE8       29.95S FOG
PIPESTONE        N/A     72  70  94 S10       29.95S
WINDOM         PTCLDY    70  70 100 SE10      29.97F
WORTHINGTON    MOCLDY    71  70  96 S10       29.99F
JACKSON        CLOUDY    70  70 100 S6        30.01R
SLAYTON        CLEAR     69  64  84 S8        29.98F
$$
MNZ065>067-074>077-082>085-091>093-131100-
   South Central Minnesota

CITY           SKY/WX    TMP DP  RH WIND       PRES   REMARKS
MANKATO        CLEAR     69  69 100 SE13      29.99F
NEW ULM        CLOUDY    70  68  94 S10       29.96F FOG
ST JAMES         N/A     72  72 100 SE9       29.97F
FAIRMONT       CLOUDY    72  71  97 S13       30.00F
GLENCOE        PTCLDY    68  67  96 SE6       29.97F
FARIBAULT      MOCLDY    70  66  88 SE7       30.03S
OWATONNA       CLEAR     70  64  83 SE10      30.03S
ALBERT LEA     CLEAR     68  66  94 S9        30.04S
$$
MNZ078>079-086>088-094>096-131100-
   Southeast Minnesota

CITY           SKY/WX    TMP DP  RH WIND       PRES   REMARKS
ROCHESTER      CLEAR     66  61  84 S9        30.06S
RED WING       PTCLDY    72  63  73 SE6       30.02R
STANTON        CLEAR     68  64  85 S7        30.01S
DODGE CENTER   CLEAR     64  61  88 SE6       30.05F
WINONA         PTCLDY    68  63  83 CALM      30.05S
AUSTIN         CLEAR     68  64  88 S3        30.06S
PRESTON        PTCLDY    66  60  78 S6        30.07F
$$
ABBREVIATIONS USED IN REMARKS
   TC - TEMPERATURES IN CELSIUS
  WCI - WIND CHILL INDEX
   HX - HEAT INDEX
  VSB - VISIBILITY
$$



USA.gov is the U.S. government's official web portal to all federal, state and local government web resources and services.